Precipitable_Water
1.18 1.13 1.12 1.10 1.06 1.03 1.02 1.03 1.03 1.05 1.04 1.03 0.98 0.94 0.93 0.95 1.01 1.06 1.13 1.13 1.17 1.21 1.22 1.23 1.26 1.26 1.26 1.26 1.25 1.24 1.24 1.24 1.27 1.26 1.24 1.24 1.28 1.31 1.34 1.36 1.33 1.33 1.33 1.30 1.30 1.26 1.23 1.19 1.20 1.22 1.17 1.08 1.10 1.13 1.16 1.21 1.20 1.17 1.17 1.15 1.12 1.13 1.08 0.99 0.91 0.92 1.06 1.26 1.23 1.21 1.31 1.32 1.28 1.30 1.27 1.30 1.33 1.37 1.36 1.32 1.29 1.24 1.21 1.21 1.23
1.20 1.14 1.13 1.09 1.03 1.00 1.00 1.02 1.02 1.04 1.02 1.02 0.99 0.97 0.96 0.96 0.98 1.07 1.10 1.12 1.16 1.17 1.22 1.27 1.28 1.28 1.27 1.25 1.25 1.26 1.27 1.26 1.27 1.26 1.22 1.21 1.23 1.29 1.28 1.28 1.28 1.30 1.32 1.28 1.30 1.30 1.26 1.20 1.17 1.19 1.23 1.15 1.06 1.07 1.10 1.14 1.17 1.14 1.13 1.10 1.08 1.08 1.12 1.01 0.93 0.91 0.90 1.09 1.16 1.29 1.28 1.34 1.22 1.34 1.28 1.28 1.30 1.35 1.32 1.32 1.34 1.32 1.26 1.22 1.19
1.23 1.17 1.12 1.08 1.06 1.05 1.03 1.01 1.02 1.02 1.01 1.02 1.00 0.99 0.99 0.99 1.02 1.03 1.05 1.12 1.19 1.19 1.19 1.24 1.27 1.28 1.26 1.26 1.26 1.25 1.25 1.25 1.27 1.25 1.23 1.21 1.20 1.23 1.27 1.26 1.22 1.22 1.22 1.22 1.25 1.30 1.28 1.24 1.20 1.20 1.21 1.15 1.12 1.06 1.07 1.09 1.14 1.11 1.09 1.11 1.07 1.06 1.09 1.06 0.96 0.89 0.88 0.93 1.10 1.16 1.21 1.27 1.23 1.27 1.34 1.36 1.37 1.38 1.32 1.31 1.31 1.35 1.35 1.30 1.23
1.32 1.23 1.13 1.08 1.07 1.06 1.05 1.05 1.04 1.02 1.01 1.02 1.01 1.02 1.04 1.04 1.05 1.03 1.04 1.08 1.14 1.20 1.22 1.22 1.27 1.28 1.26 1.25 1.26 1.24 1.24 1.23 1.24 1.24 1.23 1.22 1.20 1.20 1.24 1.27 1.25 1.22 1.19 1.18 1.20 1.23 1.21 1.21 1.22 1.23 1.22 1.15 1.11 1.09 1.07 1.06 1.09 1.10 1.08 1.09 1.08 1.06 1.08 1.08 1.04 0.93 0.91 0.86 0.94 1.05 1.16 1.20 1.27 1.35 1.39 1.41 1.39 1.38 1.35 1.34 1.36 1.33 1.35 1.36 1.32
1.39 1.31 1.20 1.09 1.06 1.05 1.04 1.05 1.03 1.02 1.01 1.03 1.02 1.04 1.06 1.08 1.08 1.05 1.06 1.08 1.11 1.17 1.22 1.25 1.24 1.26 1.26 1.23 1.22 1.22 1.23 1.24 1.22 1.22 1.23 1.24 1.22 1.21 1.22 1.25 1.26 1.25 1.23 1.20 1.19 1.17 1.16 1.15 1.17 1.22 1.23 1.18 1.16 1.13 1.11 1.04 1.02 1.06 1.06 1.07 1.06 1.06 1.07 1.07 1.05 1.03 0.96 0.91 0.90 0.99 1.09 1.17 1.24 1.31 1.36 1.32 1.35 1.39 1.40 1.35 1.32 1.31 1.33 1.36 1.37
1.50 1.41 1.32 1.20 1.10 1.04 1.02 1.03 1.02 1.02 1.02 1.02 1.02 1.04 1.07 1.08 1.09 1.09 1.09 1.08 1.12 1.16 1.18 1.23 1.22 1.20 1.23 1.27 1.27 1.25 1.26 1.26 1.24 1.21 1.22 1.24 1.24 1.24 1.23 1.22 1.23 1.25 1.25 1.25 1.23 1.20 1.15 1.12 1.14 1.18 1.19 1.16 1.15 1.15 1.15 1.11 1.08 1.03 1.02 1.05 1.07 1.08 1.05 1.06 1.07 1.05 1.01 0.97 0.96 0.93 1.00 1.00 1.09 1.17 1.26 1.29 1.26 1.26 1.30 1.35 1.37 1.36 1.32 1.30 1.33
1.59 1.50 1.42 1.33 1.22 1.11 1.04 1.01 1.02 1.02 1.04 1.04 1.05 1.06 1.07 1.08 1.09 1.08 1.11 1.11 1.11 1.14 1.18 1.20 1.23 1.21 1.20 1.23 1.26 1.29 1.29 1.29 1.28 1.28 1.27 1.27 1.26 1.22 1.20 1.19 1.19 1.20 1.22 1.23 1.24 1.23 1.20 1.17 1.15 1.15 1.14 1.14 1.14 1.14 1.15 1.14 1.13 1.09 1.07 1.05 1.08 1.09 1.08 1.07 1.08 1.06 1.03 1.01 1.02 1.02 1.00 1.05 1.06 1.05 1.21 1.28 1.29 1.29 1.24 1.25 1.26 1.34 1.35 1.30 1.26
1.62 1.57 1.50 1.42 1.33 1.24 1.14 1.07 1.03 1.03 1.05 1.06 1.06 1.06 1.07 1.07 1.08 1.10 1.13 1.12 1.11 1.12 1.14 1.16 1.18 1.21 1.21 1.21 1.24 1.31 1.33 1.33 1.33 1.33 1.31 1.29 1.27 1.24 1.21 1.18 1.16 1.17 1.20 1.22 1.23 1.23 1.22 1.20 1.18 1.17 1.15 1.14 1.14 1.15 1.17 1.15 1.16 1.14 1.16 1.15 1.13 1.10 1.08 1.09 1.09 1.08 1.05 1.04 1.02 1.01 1.04 1.02 1.09 1.16 1.24 1.29 1.27 1.30 1.33 1.26 1.18 1.21 1.26 1.34 1.34
1.60 1.59 1.56 1.49 1.43 1.38 1.31 1.21 1.14 1.10 1.09 1.07 1.06 1.06 1.07 1.08 1.09 1.10 1.11 1.11 1.12 1.11 1.14 1.17 1.17 1.19 1.24 1.27 1.27 1.29 1.29 1.31 1.32 1.31 1.29 1.28 1.27 1.25 1.24 1.22 1.20 1.18 1.18 1.20 1.23 1.23 1.24 1.24 1.22 1.20 1.20 1.18 1.17 1.16 1.17 1.18 1.16 1.12 1.16 1.19 1.16 1.14 1.11 1.10 1.08 1.08 1.07 1.05 1.03 1.08 1.06 1.05 1.04 1.07 1.11 1.14 1.14 1.14 1.28 1.33 1.26 1.27 1.29 1.29 1.37
1.57 1.58 1.56 1.53 1.53 1.51 1.44 1.35 1.25 1.18 1.15 1.12 1.09 1.08 1.09 1.12 1.11 1.10 1.11 1.12 1.11 1.13 1.15 1.17 1.19 1.19 1.21 1.26 1.30 1.30 1.28 1.31 1.34 1.35 1.34 1.30 1.28 1.28 1.30 1.29 1.27 1.24 1.21 1.20 1.20 1.22 1.21 1.21 1.22 1.21 1.20 1.20 1.19 1.19 1.18 1.19 1.21 1.18 1.16 1.17 1.16 1.15 1.13 1.10 1.08 1.06 1.04 1.01 1.01 1.03 1.01 1.01 1.03 1.04 1.03 1.09 1.18 1.27 1.29 1.31 1.25 1.30 1.31 1.28 1.33
1.55 1.55 1.54 1.57 1.58 1.57 1.53 1.47 1.39 1.27 1.21 1.18 1.17 1.14 1.12 1.15 1.15 1.13 1.14 1.16 1.16 1.18 1.19 1.16 1.17 1.22 1.23 1.23 1.25 1.27 1.30 1.33 1.35 1.38 1.39 1.38 1.37 1.35 1.32 1.31 1.32 1.31 1.29 1.26 1.21 1.20 1.22 1.24 1.24 1.25 1.26 1.25 1.24 1.22 1.21 1.21 1.21 1.22 1.22 1.21 1.20 1.16 1.10 1.09 1.08 1.09 1.05 1.01 1.04 1.07 1.04 1.00 1.03 1.08 1.05 1.06 1.14 1.18 1.22 1.27 1.27 1.30 1.25 1.19 1.14
1.50 1.52 1.56 1.61 1.62 1.60 1.58 1.55 1.50 1.41 1.34 1.26 1.23 1.21 1.20 1.18 1.17 1.16 1.16 1.18 1.21 1.23 1.22 1.19 1.18 1.21 1.25 1.28 1.28 1.31 1.35 1.40 1.44 1.47 1.48 1.48 1.47 1.44 1.43 1.42 1.42 1.42 1.41 1.39 1.36 1.33 1.31 1.31 1.31 1.32 1.32 1.29 1.27 1.26 1.25 1.24 1.24 1.24 1.24 1.24 1.23 1.23 1.20 1.13 1.08 1.08 1.09 1.06 1.03 1.02 1.03 1.00 1.03 1.09 1.09 1.09 1.07 1.12 1.20 1.27 1.28 1.28 1.26 1.24 1.25
1.52 1.52 1.55 1.59 1.61 1.63 1.62 1.58 1.54 1.53 1.48 1.41 1.35 1.31 1.27 1.22 1.20 1.20 1.18 1.19 1.23 1.23 1.21 1.22 1.21 1.23 1.26 1.29 1.31 1.37 1.40 1.47 1.50 1.52 1.55 1.57 1.58 1.58 1.56 1.55 1.53 1.51 1.51 1.50 1.48 1.46 1.45 1.43 1.41 1.41 1.39 1.35 1.33 1.32 1.30 1.26 1.27 1.27 1.26 1.25 1.25 1.24 1.22 1.21 1.20 1.14 1.13 1.09 1.03 1.00 1.01 1.02 1.04 1.06 1.12 1.11 1.14 1.10 1.16 1.20 1.26 1.31 1.34 1.32 1.35
1.54 1.53 1.56 1.57 1.59 1.61 1.61 1.59 1.56 1.55 1.58 1.57 1.52 1.43 1.36 1.28 1.23 1.24 1.25 1.25 1.23 1.21 1.24 1.24 1.25 1.27 1.29 1.31 1.35 1.39 1.42 1.49 1.54 1.57 1.60 1.62 1.65 1.66 1.65 1.63 1.62 1.60 1.60 1.58 1.55 1.54 1.54 1.52 1.49 1.47 1.50 1.49 1.46 1.42 1.39 1.36 1.32 1.29 1.26 1.25 1.23 1.22 1.21 1.21 1.21 1.22 1.21 1.15 1.09 1.02 1.06 1.12 1.05 1.07 1.16 1.21 1.14 1.09 1.11 1.11 1.22 1.27 1.32 1.36 1.47
1.49 1.52 1.54 1.57 1.60 1.60 1.59 1.57 1.55 1.57 1.59 1.61 1.60 1.54 1.46 1.39 1.33 1.30 1.29 1.27 1.23 1.20 1.21 1.24 1.28 1.32 1.36 1.38 1.38 1.41 1.45 1.52 1.55 1.57 1.60 1.63 1.67 1.70 1.71 1.71 1.70 1.69 1.70 1.71 1.70 1.68 1.68 1.67 1.63 1.58 1.58 1.56 1.55 1.54 1.51 1.49 1.45 1.40 1.34 1.29 1.27 1.24 1.23 1.22 1.21 1.22 1.23 1.21 1.16 1.12 1.12 1.16 1.14 1.16 1.20 1.24 1.20 1.18 1.19 1.18 1.22 1.27 1.37 1.49 1.54
1.41 1.47 1.49 1.54 1.58 1.61 1.59 1.56 1.54 1.55 1.56 1.58 1.58 1.56 1.54 1.49 1.41 1.37 1.33 1.31 1.31 1.30 1.29 1.30 1.31 1.34 1.39 1.41 1.40 1.39 1.47 1.54 1.56 1.58 1.61 1.64 1.70 1.74 1.75 1.76 1.74 1.73 1.73 1.73 1.74 1.77 1.79 1.77 1.73 1.70 1.69 1.67 1.68 1.68 1.66 1.65 1.58 1.50 1.45 1.43 1.41 1.39 1.34 1.30 1.28 1.28 1.27 1.26 1.25 1.23 1.22 1.23 1.24 1.24 1.26 1.27 1.27 1.29 1.31 1.33 1.34 1.32 1.30 1.30 1.31
1.32 1.37 1.41 1.47 1.53 1.58 1.60 1.57 1.54 1.53 1.54 1.51 1.51 1.54 1.55 1.55 1.54 1.52 1.40 1.33 1.29 1.28 1.27 1.29 1.32 1.35 1.38 1.41 1.39 1.39 1.45 1.53 1.58 1.62 1.67 1.73 1.79 1.80 1.82 1.82 1.80 1.77 1.75 1.79 1.82 1.84 1.85 1.84 1.82 1.78 1.78 1.77 1.80 1.80 1.79 1.79 1.71 1.61 1.54 1.49 1.48 1.47 1.40 1.44 1.47 1.44 1.40 1.36 1.31 1.29 1.30 1.31 1.32 1.34 1.36 1.37 1.36 1.36 1.36 1.29 1.22 1.26 1.20 1.15 1.25
1.28 1.31 1.34 1.41 1.48 1.55 1.59 1.59 1.56 1.55 1.53 1.47 1.47 1.53 1.60 1.64 1.61 1.61 1.49 1.39 1.32 1.29 1.30 1.32 1.36 1.38 1.38 1.40 1.43 1.42 1.46 1.55 1.61 1.67 1.74 1.81 1.86 1.85 1.87 1.85 1.81 1.82 1.84 1.91 1.93 1.90 1.88 1.88 1.87 1.84 1.81 1.81 1.86 1.87 1.87 1.86 1.77 1.71 1.66 1.61 1.56 1.50 1.45 1.54 1.61 1.59 1.56 1.50 1.45 1.40 1.38 1.38 1.37 1.38 1.40 1.41 1.43 1.45 1.36 1.21 1.25 1.29 1.20 1.18 1.16
1.20 1.23 1.28 1.37 1.44 1.50 1.55 1.58 1.58 1.57 1.54 1.53 1.54 1.53 1.55 1.58 1.65 1.69 1.64 1.58 1.48 1.43 1.42 1.39 1.40 1.43 1.45 1.47 1.52 1.52 1.55 1.62 1.66 1.69 1.75 1.84 1.90 1.94 1.93 1.90 1.85 1.85 1.89 1.88 1.89 1.86 1.85 1.89 1.90 1.90 1.88 1.88 1.90 1.89 1.88 1.86 1.79 1.76 1.73 1.71 1.61 1.53 1.52 1.68 1.70 1.64 1.63 1.62 1.59 1.57 1.51 1.47 1.44 1.41 1.40 1.43 1.46 1.48 1.44 1.37 1.39 1.31 1.21 1.20 1.20
1.09 1.20 1.26 1.32 1.37 1.44 1.49 1.54 1.58 1.57 1.57 1.60 1.62 1.62 1.64 1.64 1.65 1.66 1.68 1.67 1.61 1.56 1.51 1.48 1.45 1.47 1.53 1.55 1.57 1.60 1.62 1.67 1.73 1.77 1.81 1.83 1.85 1.87 1.88 1.82 1.76 1.83 1.90 1.88 1.84 1.85 1.87 1.89 1.92 1.93 1.93 1.93 1.94 1.92 1.90 1.89 1.83 1.81 1.82 1.72 1.62 1.50 1.67 1.81 1.75 1.75 1.75 1.70 1.65 1.65 1.58 1.55 1.53 1.50 1.48 1.48 1.49 1.50 1.48 1.45 1.42 1.37 1.29 1.26 1.24
1.06 1.10 1.18 1.26 1.31 1.36 1.45 1.51 1.55 1.60 1.63 1.63 1.66 1.68 1.69 1.67 1.69 1.69 1.67 1.69 1.67 1.62 1.57 1.55 1.54 1.55 1.60 1.62 1.63 1.66 1.68 1.67 1.75 1.79 1.81 1.82 1.83 1.81 1.79 1.77 1.79 1.82 1.82 1.83 1.84 1.83 1.86 1.89 1.92 1.93 1.92 1.92 1.94 1.94 1.93 1.91 1.90 1.89 1.86 1.75 1.68 1.71 1.87 1.80 1.77 1.83 1.81 1.79 1.77 1.72 1.67 1.64 1.61 1.58 1.52 1.48 1.47 1.48 1.49 1.49 1.47 1.44 1.37 1.30 1.26
1.13 1.12 1.12 1.17 1.25 1.32 1.39 1.49 1.58 1.63 1.67 1.69 1.65 1.65 1.72 1.75 1.72 1.71 1.71 1.68 1.64 1.61 1.61 1.60 1.58 1.59 1.63 1.67 1.68 1.68 1.71 1.72 1.74 1.79 1.83 1.86 1.88 1.87 1.83 1.83 1.86 1.81 1.75 1.75 1.79 1.81 1.85 1.90 1.91 1.94 1.93 1.90 1.91 1.92 1.93 1.92 1.91 1.90 1.84 1.84 1.87 1.87 1.86 1.88 1.87 1.85 1.82 1.79 1.77 1.72 1.68 1.64 1.61 1.58 1.57 1.55 1.51 1.48 1.48 1.49 1.50 1.50 1.47 1.42 1.34
1.13 1.12 1.12 1.13 1.19 1.29 1.38 1.45 1.54 1.63 1.66 1.67 1.64 1.61 1.69 1.71 1.72 1.73 1.70 1.67 1.63 1.60 1.59 1.59 1.57 1.57 1.60 1.66 1.71 1.73 1.78 1.81 1.85 1.87 1.93 1.94 1.93 1.91 1.90 1.91 1.94 1.93 1.82 1.74 1.74 1.80 1.91 1.94 1.97 1.99 1.96 1.94 1.93 1.92 1.91 1.90 1.88 1.84 1.85 1.88 1.87 1.88 1.90 1.91 1.88 1.84 1.79 1.75 1.71 1.65 1.63 1.62 1.60 1.58 1.59 1.57 1.58 1.58 1.55 1.55 1.55 1.53 1.51 1.52 1.52
1.10 1.09 1.09 1.11 1.17 1.27 1.38 1.47 1.54 1.61 1.65 1.67 1.63 1.60 1.62 1.66 1.69 1.69 1.70 1.67 1.63 1.59 1.59 1.61 1.60 1.56 1.55 1.60 1.69 1.77 1.84 1.91 1.97 2.00 1.98 1.96 1.95 1.95 1.96 1.95 1.95 1.95 1.94 1.85 1.88 1.93 1.95 1.97 1.96 1.95 1.93 1.91 1.91 1.90 1.89 1.89 1.87 1.87 1.89 1.88 1.88 1.90 1.91 1.85 1.81 1.78 1.77 1.74 1.67 1.60 1.57 1.62 1.64 1.63 1.63 1.68 1.72 1.71 1.65 1.62 1.60 1.59 1.58 1.58 1.58
1.13 1.12 1.13 1.15 1.20 1.29 1.40 1.47 1.53 1.59 1.64 1.66 1.61 1.60 1.62 1.66 1.63 1.69 1.69 1.67 1.65 1.61 1.62 1.65 1.62 1.61 1.61 1.61 1.67 1.78 1.87 1.98 1.97 1.94 1.93 1.93 1.93 1.93 1.94 1.95 1.95 1.95 1.89 1.92 1.95 1.97 1.97 1.96 1.95 1.93 1.91 1.90 1.90 1.89 1.88 1.87 1.87 1.87 1.87 1.86 1.87 1.87 1.84 1.81 1.78 1.79 1.78 1.75 1.72 1.70 1.71 1.72 1.74 1.76 1.84 1.89 1.93 1.94 1.85 1.77 1.73 1.70 1.67 1.66 1.64
1.15 1.14 1.17 1.21 1.25 1.33 1.37 1.45 1.53 1.57 1.62 1.65 1.64 1.64 1.64 1.66 1.64 1.67 1.69 1.67 1.66 1.64 1.64 1.67 1.67 1.69 1.69 1.70 1.73 1.78 1.88 1.87 1.81 1.84 1.87 1.90 1.92 1.93 1.93 1.93 1.94 1.94 1.92 1.91 1.94 1.94 1.94 1.94 1.96 1.98 1.99 1.99 1.97 1.93 1.89 1.89 1.90 1.89 1.85 1.83 1.81 1.78 1.76 1.73 1.72 1.75 1.80 1.86 1.84 1.87 1.94 1.95 1.98 1.97 2.01 2.01 1.92 1.88 1.87 1.80 1.75 1.70 1.68 1.62 1.56
1.19 1.20 1.22 1.27 1.31 1.34 1.36 1.42 1.51 1.59 1.64 1.68 1.67 1.67 1.68 1.70 1.70 1.69 1.68 1.65 1.65 1.66 1.68 1.69 1.70 1.72 1.72 1.73 1.74 1.79 1.72 1.73 1.76 1.81 1.89 1.91 1.91 1.90 1.90 1.90 1.93 1.92 1.91 1.90 1.91 1.90 1.90 1.89 1.86 1.84 1.83 1.83 1.84 1.84 1.80 1.76 1.71 1.67 1.68 1.69 1.69 1.69 1.69 1.69 1.73 1.77 1.81 1.83 1.84 1.86 1.95 1.97 2.05 2.00 1.99 1.97 1.89 1.94 1.93 1.89 1.83 1.80 1.73 1.68 1.61
1.24 1.25 1.29 1.34 1.35 1.37 1.38 1.46 1.52 1.58 1.65 1.67 1.65 1.63 1.68 1.73 1.70 1.68 1.66 1.67 1.65 1.66 1.69 1.70 1.71 1.71 1.68 1.71 1.73 1.67 1.66 1.69 1.74 1.76 1.78 1.78 1.79 1.81 1.82 1.81 1.79 1.79 1.76 1.75 1.71 1.68 1.63 1.63 1.63 1.64 1.63 1.61 1.63 1.66 1.67 1.67 1.66 1.65 1.66 1.67 1.64 1.63 1.64 1.69 1.77 1.79 1.81 1.84 1.84 1.82 1.81 1.79 1.78 1.80 1.87 1.92 1.98 1.94 2.03 1.93 1.86 1.82 1.81 1.72 1.63
1.35 1.33 1.34 1.34 1.36 1.41 1.45 1.52 1.52 1.54 1.57 1.59 1.62 1.65 1.67 1.72 1.69 1.68 1.75 1.80 1.79 1.74 1.72 1.73 1.76 1.79 1.79 1.75 1.69 1.64 1.64 1.66 1.70 1.79 1.77 1.76 1.72 1.71 1.67 1.64 1.59 1.54 1.49 1.44 1.39 1.35 1.30 1.25 1.22 1.20 1.19 1.16 1.17 1.19 1.22 1.25 1.27 1.32 1.34 1.35 1.38 1.39 1.39 1.40 1.40 1.48 1.57 1.61 1.62 1.65 1.67 1.72 1.72 1.70 1.69 1.71 1.72 1.71 1.73 1.72 1.83 1.84 1.79 1.75 1.61
1.39 1.36 1.38 1.37 1.39 1.42 1.45 1.47 1.48 1.51 1.52 1.51 1.52 1.57 1.68 1.73 1.74 1.72 1.71 1.80 1.86 1.88 1.86 1.78 1.81 1.80 1.75 1.77 1.80 1.74 1.68 1.70 1.75 1.74 1.74 1.71 1.68 1.62 1.56 1.49 1.40 1.33 1.26 1.21 1.17 1.10 1.06 1.02 1.00 0.98 0.96 0.95 0.92 0.92 0.92 0.93 0.94 0.95 0.99 1.04 1.09 1.10 1.09 1.10 1.13 1.16 1.23 1.27 1.31 1.35 1.43 1.51 1.58 1.62 1.66 1.65 1.65 1.68 1.74 1.84 1.87 1.89 1.74 1.66 1.57
1.38 1.40 1.42 1.42 1.43 1.41 1.42 1.42 1.46 1.50 1.52 1.53 1.53 1.54 1.56 1.63 1.70 1.73 1.77 1.79 1.80 1.81 1.83 1.86 1.87 1.87 1.83 1.74 1.74 1.78 1.78 1.76 1.74 1.69 1.61 1.55 1.48 1.42 1.35 1.32 1.28 1.23 1.19 1.11 1.03 0.95 0.89 0.84 0.84 0.85 0.86 0.87 0.87 0.88 0.90 0.92 0.92 0.93 0.94 0.98 1.02 1.05 1.06 1.07 1.08 1.12 1.16 1.19 1.21 1.21 1.22 1.25 1.32 1.41 1.53 1.61 1.63 1.62 1.62 1.68 1.74 1.69 1.65 1.59 1.55
1.38 1.40 1.44 1.46 1.47 1.45 1.46 1.44 1.43 1.44 1.48 1.54 1.55 1.55 1.55 1.51 1.53 1.65 1.71 1.76 1.82 1.86 1.86 1.85 1.86 1.85 1.82 1.79 1.74 1.70 1.67 1.60 1.52 1.44 1.39 1.33 1.30 1.25 1.20 1.15 1.11 1.05 0.97 0.93 0.84 0.84 0.85 0.84 0.84 0.85 0.87 0.87 0.89 0.92 0.93 0.94 0.94 0.95 0.95 0.95 0.95 1.01 1.06 1.06 1.12 1.18 1.21 1.25 1.26 1.26 1.27 1.29 1.32 1.35 1.38 1.42 1.49 1.55 1.59 1.59 1.60 1.60 1.62 1.64 1.59
1.49 1.48 1.49 1.50 1.49 1.49 1.49 1.48 1.47 1.46 1.45 1.47 1.49 1.52 1.51 1.48 1.43 1.42 1.54 1.63 1.64 1.64 1.63 1.61 1.60 1.58 1.58 1.55 1.50 1.42 1.36 1.31 1.27 1.23 1.19 1.16 1.12 1.07 1.00 0.96 0.94 0.94 0.93 0.89 0.86 0.84 0.87 0.88 0.88 0.90 0.93 0.93 0.95 0.96 0.97 0.99 0.99 0.99 1.00 0.99 0.97 1.00 1.05 1.10 1.19 1.21 1.22 1.25 1.31 1.34 1.36 1.37 1.40 1.42 1.44 1.45 1.44 1.45 1.54 1.56 1.56 1.58 1.62 1.59 1.53
1.56 1.57 1.56 1.56 1.52 1.49 1.50 1.49 1.47 1.46 1.48 1.49 1.50 1.50 1.51 1.50 1.46 1.43 1.39 1.37 1.40 1.44 1.44 1.41 1.38 1.36 1.35 1.33 1.29 1.25 1.22 1.17 1.13 1.09 1.02 0.97 0.95 0.96 0.97 0.96 0.97 0.97 0.94 0.89 0.90 0.90 0.93 0.93 0.95 0.98 0.99 1.01 1.02 1.02 1.02 1.02 1.03 1.04 1.04 1.04 1.05 1.07 1.09 1.13 1.12 1.12 1.19 1.25 1.28 1.31 1.35 1.38 1.42 1.44 1.46 1.50 1.50 1.49 1.48 1.48 1.53 1.58 1.57 1.54 1.44
1.48 1.55 1.59 1.58 1.55 1.52 1.52 1.52 1.47 1.41 1.38 1.37 1.36 1.35 1.33 1.31 1.30 1.28 1.27 1.28 1.28 1.29 1.30 1.34 1.37 1.34 1.23 1.14 1.08 1.02 0.96 0.91 0.91 0.93 0.95 0.96 0.99 0.99 1.00 0.96 0.90 0.93 0.96 0.99 0.99 0.99 0.99 1.00 1.01 1.02 1.03 1.03 1.06 1.07 1.06 1.07 1.08 1.08 1.08 1.08 1.08 1.09 1.10 1.09 1.09 1.12 1.14 1.18 1.23 1.28 1.33 1.36 1.40 1.45 1.50 1.50 1.51 1.49 1.47 1.50 1.56 1.57 1.55 1.58 1.59
1.38 1.40 1.44 1.48 1.49 1.48 1.46 1.44 1.41 1.37 1.35 1.35 1.34 1.33 1.35 1.36 1.33 1.28 1.26 1.25 1.22 1.20 1.20 1.18 1.15 1.12 1.08 1.01 0.96 0.93 0.91 0.91 0.93 0.98 0.99 1.01 1.02 1.02 0.93 0.91 0.93 0.95 0.97 1.01 1.02 1.05 1.07 1.08 1.08 1.06 1.07 1.08 1.09 1.08 1.09 1.09 1.10 1.10 1.11 1.11 1.09 1.09 1.08 1.08 1.09 1.11 1.15 1.18 1.20 1.26 1.33 1.36 1.39 1.43 1.49 1.54 1.56 1.58 1.62 1.65 1.64 1.61 1.57 1.53 1.56
1.24 1.25 1.29 1.36 1.40 1.40 1.39 1.39 1.37 1.35 1.34 1.32 1.30 1.28 1.25 1.20 1.13 1.09 1.06 1.06 1.06 1.05 1.04 1.03 1.01 1.03 1.08 1.11 1.11 1.05 1.02 0.99 0.99 1.02 1.07 1.12 1.13 1.10 1.05 1.02 1.00 1.00 0.99 1.01 1.04 1.06 1.06 1.08 1.11 1.08 1.09 1.09 1.09 1.11 1.12 1.12 1.13 1.13 1.13 1.14 1.13 1.11 1.10 1.10 1.12 1.15 1.17 1.21 1.26 1.31 1.36 1.41 1.47 1.49 1.50 1.47 1.52 1.57 1.58 1.59 1.63 1.67 1.67 1.67 1.64
1.23 1.24 1.26 1.30 1.32 1.35 1.35 1.35 1.37 1.37 1.34 1.30 1.26 1.22 1.16 1.14 1.12 1.10 1.05 1.01 1.03 1.02 1.03 1.05 1.05 1.04 1.02 1.06 1.13 1.09 1.11 1.13 1.14 1.14 1.17 1.18 1.16 1.14 1.12 1.11 1.09 1.06 1.04 1.05 1.07 1.08 1.08 1.10 1.10 1.09 1.10 1.11 1.11 1.12 1.12 1.13 1.14 1.14 1.13 1.12 1.11 1.10 1.10 1.11 1.14 1.17 1.21 1.26 1.31 1.38 1.44 1.52 1.61 1.63 1.63 1.65 1.69 1.70 1.70 1.71 1.67 1.67 1.71 1.73 1.71
1.10 1.13 1.16 1.18 1.21 1.23 1.25 1.24 1.23 1.20 1.19 1.18 1.16 1.12 1.10 1.10 1.11 1.12 1.12 1.10 1.09 1.09 1.10 1.11 1.11 1.10 1.13 1.16 1.14 1.19 1.18 1.14 1.12 1.10 1.14 1.17 1.19 1.18 1.15 1.14 1.11 1.10 1.10 1.09 1.11 1.13 1.11 1.11 1.12 1.14 1.14 1.13 1.13 1.12 1.13 1.12 1.13 1.13 1.13 1.11 1.08 1.07 1.07 1.09 1.14 1.21 1.28 1.33 1.41 1.49 1.55 1.59 1.64 1.71 1.79 1.80 1.79 1.79 1.78 1.77 1.76 1.74 1.69 1.68 1.67
1.17 1.16 1.19 1.23 1.22 1.21 1.22 1.22 1.22 1.21 1.19 1.17 1.17 1.20 1.18 1.16 1.14 1.13 1.15 1.14 1.12 1.12 1.13 1.13 1.14 1.18 1.23 1.24 1.22 1.24 1.19 1.17 1.17 1.17 1.16 1.17 1.16 1.17 1.16 1.12 1.12 1.12 1.12 1.12 1.14 1.14 1.14 1.15 1.16 1.16 1.16 1.14 1.14 1.13 1.13 1.13 1.13 1.14 1.14 1.13 1.09 1.08 1.10 1.13 1.17 1.24 1.33 1.43 1.50 1.60 1.66 1.68 1.70 1.73 1.78 1.80 1.79 1.80 1.77 1.79 1.79 1.79 1.76 1.72 1.69
1.25 1.25 1.25 1.26 1.25 1.23 1.24 1.24 1.23 1.22 1.23 1.23 1.21 1.20 1.19 1.17 1.17 1.17 1.17 1.17 1.18 1.18 1.19 1.22 1.24 1.28 1.30 1.30 1.31 1.30 1.25 1.21 1.20 1.19 1.19 1.18 1.18 1.17 1.17 1.16 1.16 1.16 1.16 1.14 1.16 1.17 1.17 1.18 1.20 1.21 1.20 1.17 1.16 1.14 1.13 1.12 1.13 1.14 1.15 1.15 1.16 1.18 1.15 1.16 1.22 1.31 1.40 1.48 1.57 1.67 1.72 1.74 1.74 1.71 1.65 1.71 1.78 1.73 1.75 1.82 1.78 1.76 1.75 1.71 1.68
1.27 1.25 1.25 1.26 1.26 1.23 1.20 1.20 1.22 1.24 1.24 1.23 1.22 1.21 1.20 1.19 1.20 1.18 1.19 1.19 1.21 1.21 1.21 1.23 1.28 1.31 1.32 1.32 1.31 1.29 1.25 1.23 1.22 1.21 1.21 1.21 1.21 1.20 1.21 1.20 1.20 1.18 1.16 1.17 1.19 1.19 1.21 1.23 1.25 1.25 1.23 1.18 1.16 1.15 1.13 1.10 1.11 1.13 1.17 1.19 1.20 1.23 1.18 1.13 1.16 1.24 1.32 1.43 1.53 1.62 1.68 1.69 1.70 1.70 1.70 1.73 1.74 1.72 1.69 1.67 1.69 1.71 1.69 1.67 1.60
1.28 1.26 1.26 1.26 1.25 1.23 1.21 1.22 1.23 1.22 1.21 1.22 1.21 1.24 1.24 1.23 1.21 1.22 1.21 1.21 1.21 1.22 1.22 1.22 1.24 1.28 1.28 1.27 1.27 1.27 1.25 1.24 1.21 1.20 1.20 1.21 1.22 1.23 1.22 1.20 1.19 1.19 1.20 1.23 1.26 1.27 1.26 1.27 1.28 1.28 1.26 1.22 1.22 1.19 1.14 1.11 1.12 1.13 1.16 1.21 1.22 1.22 1.24 1.22 1.19 1.23 1.28 1.34 1.43 1.49 1.54 1.59 1.62 1.62 1.60 1.60 1.64 1.70 1.67 1.63 1.61 1.61 1.58 1.46 1.33
1.27 1.27 1.28 1.27 1.27 1.26 1.25 1.23 1.21 1.21 1.21 1.22 1.22 1.23 1.23 1.24 1.24 1.23 1.22 1.20 1.20 1.20 1.19 1.20 1.22 1.23 1.24 1.26 1.26 1.25 1.22 1.20 1.19 1.19 1.20 1.22 1.22 1.21 1.21 1.19 1.19 1.20 1.22 1.24 1.27 1.30 1.30 1.31 1.30 1.31 1.30 1.29 1.28 1.24 1.19 1.16 1.16 1.15 1.16 1.17 1.18 1.17 1.18 1.20 1.22 1.24 1.28 1.29 1.31 1.32 1.34 1.37 1.40 1.42 1.43 1.45 1.46 1.46 1.46 1.45 1.42 1.39 1.38 1.34 1.32
1.29 1.28 1.26 1.24 1.24 1.23 1.23 1.24 1.23 1.24 1.25 1.25 1.23 1.22 1.22 1.20 1.18 1.17 1.18 1.17 1.17 1.17 1.18 1.18 1.19 1.19 1.20 1.20 1.19 1.17 1.17 1.18 1.19 1.20 1.22 1.23 1.22 1.21 1.20 1.20 1.20 1.21 1.23 1.25 1.29 1.32 1.33 1.34 1.33 1.30 1.28 1.29 1.29 1.25 1.21 1.18 1.19 1.20 1.23 1.23 1.21 1.19 1.18 1.18 1.19 1.23 1.26 1.28 1.30 1.30 1.33 1.35 1.34 1.33 1.34 1.37 1.37 1.36 1.35 1.36 1.36 1.34 1.32 1.29 1.25
1.30 1.29 1.27 1.26 1.25 1.25 1.25 1.24 1.22 1.19 1.16 1.14 1.12 1.11 1.11 1.10 1.11 1.10 1.10 1.10 1.10 1.09 1.09 1.10 1.09 1.09 1.09 1.10 1.12 1.13 1.15 1.18 1.22 1.25 1.26 1.25 1.23 1.22 1.23 1.23 1.23 1.24 1.25 1.27 1.31 1.34 1.36 1.36 1.33 1.28 1.28 1.28 1.28 1.26 1.23 1.21 1.20 1.20 1.22 1.25 1.24 1.23 1.24 1.24 1.23 1.20 1.19 1.20 1.21 1.20 1.22 1.25 1.28 1.32 1.32 1.35 1.36 1.35 1.33 1.32 1.30 1.30 1.27 1.26 1.27
1.28 1.27 1.26 1.24 1.20 1.17 1.15 1.13 1.10 1.08 1.06 1.05 1.04 1.03 1.03 1.03 1.03 1.03 1.03 1.02 1.02 1.02 1.01 1.01 1.02 1.03 1.04 1.06 1.08 1.12 1.17 1.20 1.22 1.24 1.26 1.27 1.27 1.26 1.25 1.24 1.24 1.26 1.28 1.30 1.33 1.34 1.35 1.34 1.32 1.29 1.29 1.28 1.27 1.27 1.24 1.22 1.21 1.21 1.21 1.21 1.22 1.22 1.21 1.21 1.19 1.16 1.16 1.18 1.18 1.17 1.17 1.15 1.18 1.21 1.24 1.27 1.30 1.27 1.28 1.26 1.25 1.26 1.27 1.27 1.27
1.14 1.13 1.11 1.10 1.08 1.06 1.05 1.05 1.04 1.04 1.04 1.03 1.02 1.01 1.00 1.00 1.00 1.00 1.00 1.00 0.99 1.00 1.00 1.02 1.03 1.04 1.06 1.08 1.13 1.16 1.18 1.20 1.22 1.24 1.25 1.26 1.25 1.26 1.26 1.26 1.25 1.27 1.28 1.28 1.30 1.32 1.32 1.32 1.31 1.31 1.30 1.30 1.29 1.28 1.26 1.24 1.22 1.20 1.20 1.21 1.21 1.22 1.22 1.19 1.16 1.15 1.13 1.11 1.08 1.07 1.06 1.07 1.08 1.10 1.13 1.15 1.16 1.18 1.19 1.21 1.24 1.24 1.23 1.23 1.23
1.09 1.08 1.07 1.06 1.05 1.06 1.05 1.05 1.04 1.03 1.02 1.02 1.02 1.01 1.01 1.00 1.00 1.00 1.01 1.01 1.01 1.02 1.02 1.02 1.04 1.05 1.08 1.11 1.14 1.16 1.19 1.19 1.20 1.21 1.21 1.19 1.20 1.23 1.25 1.26 1.25 1.26 1.25 1.25 1.28 1.30 1.32 1.31 1.31 1.31 1.31 1.30 1.29 1.27 1.27 1.27 1.25 1.23 1.21 1.21 1.21 1.22 1.22 1.22 1.19 1.18 1.17 1.15 1.11 1.09 1.09 1.08 1.06 1.05 1.07 1.09 1.12 1.14 1.15 1.16 1.16 1.15 1.15 1.14 1.13
1.07 1.07 1.06 1.06 1.05 1.05 1.06 1.05 1.04 1.03 1.03 1.02 1.01 1.01 1.01 1.00 1.00 1.00 1.01 1.01 1.02 1.02 1.03 1.05 1.05 1.05 1.07 1.10 1.12 1.14 1.15 1.16 1.16 1.16 1.15 1.17 1.19 1.21 1.22 1.24 1.24 1.25 1.23 1.23 1.26 1.28 1.30 1.31 1.32 1.32 1.33 1.32 1.31 1.29 1.26 1.25 1.24 1.24 1.23 1.23 1.23 1.22 1.21 1.21 1.20 1.18 1.16 1.15 1.15 1.15 1.13 1.10 1.09 1.08 1.08 1.08 1.09 1.09 1.08 1.09 1.08 1.08 1.07 1.04 1.02
1.06 1.05 1.04 1.03 1.03 1.03 1.03 1.02 1.01 1.01 1.01 1.00 0.99 0.98 0.98 0.97 0.97 0.97 0.98 0.97 0.98 0.99 1.01 1.03 1.04 1.05 1.06 1.08 1.10 1.11 1.12 1.12 1.13 1.14 1.15 1.16 1.18 1.20 1.20 1.20 1.20 1.21 1.22 1.24 1.25 1.27 1.29 1.29 1.29 1.30 1.30 1.29 1.28 1.27 1.26 1.25 1.23 1.22 1.22 1.22 1.22 1.21 1.19 1.18 1.15 1.13 1.12 1.10 1.09 1.08 1.05 1.02 1.01 1.00 1.00 1.00 1.00 0.99 0.99 0.99 0.99 0.97 0.96 0.96 0.95
Wind_Speed
27 27 27 27 27 27 26 26 25 24 23 23 22 22 21 21 20 19 18 18 17 16 16 15 15 15 14 14 13 13 13 13 13 12 12 12 12 12 13 13 13 13 13 13 13 12 12 12 12 11 11 11 11 11 10 9 8 8 8 8 8 8 7 7 8 8 8 8 8 8 8 8 8 9 9 10 11 11 12 11 11 11 12 12 12
26 26 27 27 27 27 27 26 25 25 24 24 23 22 22 21 20 20 19 18 18 17 16 16 16 15 15 15 14 14 14 14 14 13 13 13 13 13 13 13 14 14 14 14 14 13 13 13 14 13 12 12 12 12 12 11 10 10 10 9 10 9 9 9 9 10 10 10 10 9 9 9 10 10 11 11 12 12 12 12 12 13 13 13 14
25 26 26 26 27 27 26 26 26 25 25 24 23 23 22 21 21 20 20 19 18 18 17 16 16 16 16 16 15 15 15 15 15 14 14 14 14 14 14 14 14 14 14 15 15 15 14 14 15 14 14 14 14 14 14 13 13 12 12 12 12 12 11 11 11 12 12 12 12 12 11 11 11 12 12 12 13 13 14 14 14 14 14 14 15
25 25 26 26 26 26 26 26 26 25 25 24 24 23 22 21 21 21 20 19 19 18 18 17 17 16 16 16 16 16 16 16 15 15 15 15 15 15 15 15 15 15 15 15 16 16 16 16 16 16 16 16 15 15 15 15 15 15 14 14 14 14 14 14 14 14 14 14 14 14 14 14 14 14 14 14 14 14 15 15 15 16 16 16 16
25 25 25 26 26 26 26 26 26 26 25 25 24 23 22 22 21 21 21 20 20 19 18 18 18 17 17 17 17 16 16 16 16 16 16 16 16 16 16 16 16 16 16 16 16 17 17 17 17 17 17 17 17 16 16 17 17 17 17 16 16 16 16 16 16 16 16 16 16 16 16 16 16 16 15 15 15 16 16 17 17 17 17 17 17
25 25 25 25 25 26 26 26 26 26 26 25 24 23 23 22 22 21 21 21 20 20 19 19 18 18 18 17 17 17 17 17 17 17 17 17 17 17 17 17 17 17 17 17 17 17 18 18 18 18 18 18 18 18 18 18 18 18 19 18 18 18 18 18 18 18 18 18 18 18 17 17 18 18 17 17 17 17 17 18 18 19 18 18 18
25 25 25 25 26 26 26 26 26 26 26 25 25 24 23 23 22 22 22 21 21 20 20 20 19 19 19 18 18 18 18 18 18 18 18 18 18 18 18 18 18 18 18 18 18 18 19 19 19 19 20 20 20 19 19 19 19 20 20 20 20 20 20 20 20 19 20 20 19 19 19 19 19 19 19 19 19 19 19 19 20 20 20 20 20
24 25 25 25 26 26 26 26 26 26 26 25 25 24 24 23 23 22 22 22 22 21 21 20 20 20 19 19 19 18 18 18 18 18 18 19 19 19 19 19 18 18 18 18 18 18 19 19 20 20 21 21 21 21 21 21 21 21 21 21 21 21 22 22 21 21 21 21 21 21 21 20 20 20 20 20 20 21 21 21 21 21 21 21 21
24 24 25 25 25 25 25 25 25 25 25 25 25 25 24 24 24 23 23 22 22 22 21 21 20 20 20 19 19 19 19 19 19 19 19 19 19 18 18 18 18 17 17 17 17 18 18 19 19 20 21 22 22 22 23 23 23 23 23 23 23 23 23 23 23 23 23 23 23 22 22 22 22 22 21 21 22 22 22 22 23 23 22 22 22
24 24 25 25 25 25 25 25 25 25 25 26 26 25 25 24 24 23 23 23 22 22 21 21 20 20 20 20 20 20 20 19 19 19 19 19 18 18 17 17 17 17 17 17 17 18 18 19 19 20 21 22 22 23 24 24 24 25 25 24 25 25 24 25 25 25 25 25 24 24 24 24 24 24 24 24 24 24 23 23 24 24 23 23 24
24 24 25 25 25 25 25 25 25 25 25 25 26 26 25 24 24 24 23 23 23 22 22 21 21 20 20 20 20 20 20 19 19 20 20 19 18 17 17 17 16 16 16 16 17 17 18 18 19 19 20 21 22 23 24 25 25 26 26 26 26 26 26 26 26 26 26 26 26 26 26 26 26 26 26 26 25 25 25 25 25 25 24 24 24
23 24 24 24 25 25 25 25 25 25 25 25 25 25 26 25 25 24 24 23 23 22 22 22 21 20 20 20 20 20 19 19 19 19 19 19 19 18 17 16 16 16 16 16 17 17 17 18 19 19 20 21 22 23 24 25 26 27 27 28 28 28 28 28 28 28 28 28 28 28 28 28 28 28 28 27 27 27 27 26 26 26 25 25 25
22 23 23 24 24 25 25 25 25 25 25 25 25 25 26 26 25 25 24 24 23 23 23 22 22 21 20 20 20 20 19 19 19 19 19 19 19 18 18 17 17 17 18 18 18 18 19 19 20 20 21 22 22 23 24 25 26 27 28 28 29 30 30 30 30 30 30 30 30 30 30 30 30 29 29 29 28 28 27 27 27 27 27 27 26
21 22 22 23 23 24 24 25 25 25 26 25 25 25 26 26 26 26 25 24 24 24 23 23 22 21 21 20 20 20 20 20 20 20 19 19 20 20 19 19 19 20 20 20 21 21 21 21 22 22 22 23 23 24 25 25 26 27 28 28 29 30 30 31 32 32 32 32 32 32 32 31 32 31 31 30 30 29 29 28 28 28 28 28 27
22 22 22 22 23 23 23 24 25 25 26 26 26 26 26 26 26 26 26 25 25 25 24 23 22 22 21 21 20 20 20 20 20 20 20 20 21 21 21 21 21 21 22 22 23 23 23 23 23 24 24 24 25 25 26 26 27 27 28 29 29 30 30 31 32 32 33 33 33 33 33 33 33 33 32 32 31 31 31 30 30 30 29 29 28
23 22 22 23 23 23 23 23 23 24 25 26 27 27 27 27 27 26 26 26 26 25 25 24 23 23 22 22 21 21 20 20 20 21 21 21 21 22 22 23 23 23 23 24 24 24 25 25 25 26 26 27 27 27 27 28 28 29 29 30 30 31 31 32 33 33 34 34 34 34 34 34 34 34 34 33 33 33 32 31 31 30 30 29 29
24 23 23 23 23 23 23 23 23 23 24 25 26 27 27 27 27 27 26 26 26 26 25 25 24 24 23 23 22 22 21 21 21 21 22 22 22 23 23 24 24 24 25 25 25 26 26 27 28 28 28 29 29 29 29 29 30 30 31 31 31 32 33 33 34 35 35 36 36 36 36 36 35 35 35 35 34 34 33 32 32 31 31 30 30
25 24 24 24 24 24 24 24 24 23 23 24 25 27 27 27 27 27 27 27 26 26 26 25 25 24 23 23 23 23 22 22 22 22 22 22 23 23 24 25 26 26 26 26 26 27 28 29 30 30 30 30 31 31 31 31 31 32 32 33 33 34 34 34 35 35 36 37 38 38 38 38 37 36 36 36 35 35 34 34 33 32 32 31 30
26 25 25 25 25 25 24 25 25 24 23 23 23 25 26 27 27 27 27 26 26 26 25 25 24 24 24 23 23 23 23 23 23 23 23 23 24 24 24 25 25 26 27 27 28 28 29 30 30 31 31 32 32 32 32 33 33 34 34 34 35 36 36 36 36 37 37 38 38 39 39 39 39 38 38 37 37 36 36 36 35 34 33 33 31
26 26 26 26 26 26 25 25 25 25 24 23 22 23 24 25 26 26 26 26 26 25 25 24 24 24 24 24 24 23 23 23 23 23 24 24 25 25 25 25 25 26 27 27 28 29 30 31 31 32 33 33 34 34 34 34 35 36 37 37 37 38 38 38 39 39 39 39 40 40 41 40 40 40 39 39 39 38 38 37 37 36 35 34 33
26 26 27 27 27 26 26 25 25 25 24 23 22 22 22 23 24 25 26 26 25 25 25 25 24 24 24 24 24 24 24 24 24 24 25 25 26 26 27 27 27 28 28 28 29 30 31 32 33 33 34 35 36 36 36 36 37 38 39 40 40 41 40 40 41 42 42 42 42 42 42 42 41 41 41 40 40 40 39 39 38 37 36 35 34
25 25 26 27 27 27 26 25 25 25 24 23 23 22 22 22 22 23 24 25 25 26 25 25 25 24 24 24 24 25 25 25 24 25 25 26 26 27 27 28 28 29 29 30 30 31 32 32 33 34 35 36 37 38 38 39 39 40 41 42 43 43 43 43 44 44 44 45 44 44 43 43 42 42 42 42 41 41 40 40 39 38 38 37 36
25 25 25 26 26 27 26 25 25 25 25 24 24 23 23 22 22 22 23 24 24 25 25 25 25 25 25 24 24 24 24 25 25 25 26 26 27 27 28 28 29 30 30 30 31 31 32 33 34 35 36 36 37 38 39 40 40 41 43 44 45 45 46 46 46 47 47 46 46 46 45 44 44 44 43 43 43 43 42 41 40 39 39 38 37
23 23 24 24 24 26 26 25 25 25 25 25 24 24 24 24 23 23 23 23 24 24 24 25 25 25 25 25 24 24 24 24 25 25 26 26 27 28 29 30 30 31 32 32 32 33 33 34 35 36 37 38 38 39 40 41 42 43 44 44 45 46 47 48 49 50 50 49 49 48 47 46 46 45 45 45 45 44 43 43 42 41 40 39 38
21 21 22 22 23 24 25 25 25 25 25 25 25 25 25 25 24 24 24 24 24 24 24 24 24 24 25 25 25 25 24 25 25 25 25 26 27 28 30 31 32 33 33 34 34 34 35 36 37 37 38 38 39 40 41 42 43 44 45 45 46 47 48 50 51 52 52 52 51 51 49 48 47 47 47 47 46 45 45 44 43 42 41 40 39
20 21 21 22 22 22 23 24 24 24 24 25 25 25 25 25 25 25 25 25 25 25 24 24 24 25 25 25 25 25 25 25 26 26 26 26 27 28 29 31 32 32 33 34 35 36 37 38 39 39 40 40 41 41 42 43 44 45 46 47 47 48 50 51 53 54 54 54 53 52 52 51 50 50 49 47 47 46 46 45 43 42 41 40 39
20 20 21 21 21 22 22 23 24 24 24 24 24 25 25 25 25 25 25 25 25 25 25 25 25 25 26 26 26 26 26 26 26 26 27 27 28 28 28 29 30 31 32 33 34 35 36 36 38 39 40 42 43 44 45 46 46 47 48 49 50 51 53 54 56 56 56 55 54 53 52 51 50 50 50 49 49 48 47 45 44 43 42 41 40
19 20 20 21 21 21 21 22 23 23 23 23 23 23 24 24 25 25 25 26 26 26 26 26 26 26 26 26 26 25 25 26 26 27 27 27 27 28 28 28 29 30 30 32 33 34 35 36 37 39 40 42 43 44 46 47 48 49 50 51 52 53 54 56 57 57 57 56 55 53 52 51 49 48 49 49 49 47 46 45 44 44 44 42 42
19 19 20 21 21 21 21 21 21 22 22 21 21 21 22 23 23 24 24 25 26 26 26 26 25 25 25 25 25 25 25 26 26 26 26 26 27 27 27 28 28 29 31 32 33 35 36 37 38 39 41 42 43 44 46 47 48 49 50 51 52 52 53 54 56 56 57 57 56 55 54 52 50 49 48 48 47 46 45 45 45 44 43 42 41
17 18 19 20 20 20 20 20 20 21 21 21 21 21 21 21 22 23 23 24 24 25 25 25 25 25 24 24 24 24 24 25 25 25 25 26 27 27 27 28 29 31 32 33 34 35 36 37 39 40 41 42 44 45 46 47 48 49 50 51 51 52 53 54 54 55 56 56 56 56 55 53 52 50 49 48 47 46 45 45 45 43 41 41 41
17 18 18 19 19 19 19 19 19 19 19 20 20 20 20 19 20 20 21 21 21 21 22 23 23 23 23 23 23 23 23 24 24 25 26 26 27 28 29 30 31 32 33 34 35 36 37 39 40 41 42 43 44 45 46 47 48 49 50 51 51 52 53 54 55 55 56 56 56 56 55 54 53 51 50 48 47 46 44 44 43 42 41 40 40
18 18 18 18 18 19 19 19 19 19 19 19 19 19 19 19 18 18 19 19 19 19 19 20 20 20 21 22 22 22 23 24 24 25 26 27 27 28 30 31 32 33 34 35 36 38 39 40 41 42 43 44 45 45 46 47 48 49 50 51 52 53 54 55 55 55 55 55 55 55 55 54 53 52 50 49 48 47 46 45 44 43 43 41 40
18 18 18 18 18 19 19 19 19 19 19 19 19 19 19 19 19 18 18 18 18 17 18 18 18 19 20 21 21 22 23 23 24 25 26 27 28 29 31 32 33 34 35 36 38 39 41 42 43 43 44 44 45 45 46 47 49 50 51 52 53 54 55 55 55 55 55 55 55 55 55 54 54 53 52 50 49 49 48 47 46 45 44 42 40
19 19 19 19 19 19 19 19 20 19 19 19 19 19 19 19 19 19 18 18 18 18 18 18 19 19 20 21 21 22 23 24 25 26 27 28 29 30 31 33 34 35 36 38 39 40 41 42 43 43 44 44 44 46 47 48 49 50 51 52 53 54 55 55 55 55 55 55 55 56 55 55 54 54 52 51 51 50 50 49 48 47 45 43 41
20 19 19 19 19 18 18 19 19 19 19 19 19 19 18 18 18 19 19 19 19 19 19 20 20 21 21 21 22 23 24 25 25 26 27 28 29 31 32 33 35 36 37 38 39 40 41 41 42 43 43 43 44 45 46 47 48 49 50 51 52 53 54 54 54 55 55 55 55 55 55 55 54 54 53 52 51 50 50 49 49 48 46 45 43
20 20 20 19 19 19 18 18 18 18 18 18 18 18 19 19 19 19 19 20 20 20 20 21 21 22 22 22 23 23 24 25 26 27 28 29 30 32 33 34 35 36 37 38 39 39 40 40 41 42 42 42 43 44 45 46 46 47 49 50 52 53 53 53 54 54 54 54 54 54 54 54 54 53 52 53 53 52 51 50 50 49 48 46 44
21 21 21 20 20 19 19 18 18 18 18 18 18 18 18 19 19 19 20 20 21 21 22 22 22 23 23 24 24 25 26 27 28 28 29 30 31 32 33 34 36 37 38 38 39 39 40 40 40 40 40 41 42 42 43 44 45 46 47 49 50 52 53 53 53 53 53 53 52 52 52 52 51 51 52 52 53 52 52 51 50 48 47 46 44
21 22 22 21 21 20 20 20 19 19 19 19 19 19 19 19 20 20 21 21 22 22 23 23 23 24 24 25 25 26 27 28 29 29 30 31 32 33 34 35 36 37 38 38 38 39 39 39 38 39 39 40 40 40 41 42 43 44 45 46 48 50 51 52 51 51 51 51 50 49 48 47 46 46 47 48 48 48 48 48 47 45 44 44 43
21 21 21 21 21 21 20 20 20 20 20 20 20 20 20 20 20 21 21 22 23 23 24 24 24 24 25 26 27 28 29 30 30 31 32 32 33 34 35 36 37 38 38 38 38 38 38 37 37 38 38 38 38 38 39 40 41 42 42 44 46 48 49 50 49 48 47 47 46 45 43 41 40 40 41 42 43 43 42 41 41 40 39 39 40
22 21 21 21 21 21 21 20 20 20 20 20 20 21 21 21 21 22 22 22 22 23 23 24 24 25 26 27 28 29 30 30 31 32 32 33 34 36 36 37 38 37 37 36 37 37 36 36 36 36 36 36 37 37 37 38 39 39 40 41 43 44 46 46 45 42 41 41 40 38 36 36 35 35 35 34 34 37 40 40 39 37 35 34 36
22 22 22 22 22 21 21 21 21 21 21 21 21 21 21 21 22 22 22 22 23 23 23 24 25 26 27 27 28 29 30 30 31 32 33 35 36 37 37 37 37 36 36 35 35 35 35 34 34 35 35 35 35 35 36 36 37 37 37 38 38 39 40 41 39 36 35 34 32 29 28 27 26 25 25 24 24 27 32 35 36 34 31 29 32
22 22 22 22 22 22 22 22 21 21 21 21 22 22 22 22 22 23 23 23 24 24 24 25 25 26 27 28 29 30 30 31 32 34 35 36 36 37 37 37 36 35 34 34 34 34 33 33 33 33 33 33 34 34 34 34 34 34 34 34 34 33 34 36 36 35 34 29 24 20 18 15 12 11 12 14 17 21 24 27 30 32 30 28 29
23 22 22 22 22 22 22 22 22 22 22 22 22 23 23 23 23 24 24 24 25 26 26 26 27 28 29 29 30 31 32 33 34 35 35 36 36 36 36 36 35 34 33 33 33 33 32 32 31 31 32 32 32 32 32 32 31 31 30 30 30 30 30 31 32 33 33 30 26 22 18 12 8 5 2 3 9 17 21 22 25 28 30 29 28
23 23 22 22 22 22 22 22 22 22 22 23 23 23 24 24 24 25 25 26 27 27 28 29 30 30 31 31 32 32 33 34 35 35 35 35 35 35 35 35 34 33 32 32 32 31 31 30 30 30 30 30 30 30 29 29 29 28 27 27 27 27 27 27 27 28 28 27 26 24 21 16 12 8 6 6 9 13 18 20 22 25 27 27 26
23 23 22 23 23 23 22 23 23 23 23 24 24 25 25 26 26 26 27 28 28 29 30 30 31 32 32 33 33 34 34 35 35 35 35 34 34 33 33 33 31 31 31 31 30 30 29 29 28 28 28 28 28 27 26 26 26 25 25 24 24 24 24 24 24 24 23 22 22 21 18 15 12 8 6 6 8 12 14 16 18 20 21 21 22
22 23 23 23 23 23 23 23 23 24 24 24 25 25 26 26 26 27 28 28 29 30 30 31 31 31 32 33 33 34 34 34 34 34 33 33 32 32 31 31 30 29 29 29 28 28 27 27 27 27 27 27 26 25 24 24 23 23 22 22 21 21 21 20 20 20 20 19 18 18 16 13 10 7 4 1 5 9 11 12 13 14 15 17 18
22 22 22 23 23 23 23 23 24 24 24 24 24 25 25 26 26 27 27 28 29 29 30 30 30 31 31 32 33 33 33 32 32 32 32 32 31 31 30 29 28 28 27 27 27 26 27 27 26 26 25 25 24 23 23 22 21 21 21 20 20 19 18 17 17 17 17 16 16 15 14 12 10 8 6 4 1 5 7 9 10 11 12 13 13
22 22 22 23 23 23 24 24 24 24 24 24 24 25 25 26 26 27 27 28 28 28 29 29 30 30 31 31 31 32 32 32 32 32 31 30 29 29 28 28 27 26 26 25 26 26 26 25 25 25 24 23 23 22 22 21 20 19 19 19 18 17 16 16 15 15 15 14 14 13 13 11 9 8 6 5 3 1 3 5 6 8 9 10 11
22 22 23 23 23 23 23 23 23 23 24 24 24 24 25 25 25 26 26 27 27 27 28 28 29 29 30 30 31 31 31 31 31 30 29 28 27 27 27 26 26 25 24 24 24 25 25 24 24 23 22 21 21 21 20 20 19 19 18 18 17 16 15 15 15 15 15 14 13 13 12 11 9 8 7 6 4 3 3 3 5 6 8 9 10
21 22 22 22 22 22 22 22 22 22 23 23 23 23 24 24 24 25 25 25 26 26 26 27 27 28 28 29 30 29 29 29 28 27 27 27 26 26 25 25 24 24 23 23 23 23 23 23 23 22 21 21 20 20 20 19 19 19 19 18 16 15 15 15 16 16 15 15 14 13 13 11 10 9 8 7 7 6 6 6 7 7 8 9 10
18 19 19 20 20 20 21 21 21 22 22 22 23 23 23 24 24 24 24 24 24 25 25 26 26 27 27 27 28 27 27 26 26 25 25 25 24 24 23 23 23 22 22 23 23 23 23 22 22 22 21 21 21 20 20 20 20 19 19 18 17 15 15 16 17 17 17 16 16 15 14 13 12 11 10 10 9 9 8 9 9 9 9 10 11
Wind_Direction
210 211 211 212 213 214 216 217 218 219 220 221 222 223 224 225 227 228 229 230 231 232 233 233 233 233 234 235 235 236 238 240 242 243 242 244 245 247 248 248 248 250 252 253 255 256 256 256 257 259 261 262 263 264 267 270 272 271 271 273 275 281 286 288 291 298 302 305 310 314 315 315 315 314 317 320 321 322 322 323 322 320 319 319 318
210 211 212 213 214 216 217 218 219 219 220 221 223 224 225 226 227 228 229 231 232 233 234 235 235 234 234 236 236 237 238 240 242 244 244 244 246 249 249 249 250 250 250 251 252 254 255 255 256 257 259 261 261 262 263 265 268 269 270 272 274 276 280 283 286 290 294 296 300 306 307 306 306 307 309 312 315 317 318 318 318 318 317 317 317
209 211 212 213 215 216 218 218 219 220 221 222 223 224 225 226 227 228 230 231 233 234 234 235 236 236 235 235 236 238 239 241 243 245 246 246 247 249 250 250 251 252 251 251 251 252 253 254 255 255 257 259 260 260 260 261 265 267 269 271 273 275 276 279 282 286 289 291 292 296 299 298 299 302 305 307 310 311 313 314 314 314 314 314 315
210 211 212 213 214 216 217 218 219 219 220 221 222 224 225 227 228 229 230 231 232 233 234 235 236 237 237 237 237 238 240 242 244 246 247 248 249 250 251 251 252 253 253 253 253 252 252 253 254 255 256 257 258 259 259 260 262 266 269 271 272 274 276 278 279 282 286 288 289 290 292 294 296 299 301 303 305 307 308 310 310 311 311 311 312
211 212 213 214 215 215 216 217 218 218 220 221 222 223 225 227 228 229 230 231 232 233 234 235 235 236 238 239 240 240 242 244 246 247 250 251 251 251 252 252 254 254 255 255 255 254 253 253 254 255 256 257 258 259 260 260 262 264 267 270 272 274 276 277 279 281 283 285 287 288 289 291 293 296 297 298 300 303 305 306 308 309 309 309 309
211 213 214 215 216 216 217 217 218 219 220 222 223 224 225 227 228 229 230 231 232 233 234 235 236 237 239 241 242 243 245 247 248 250 251 252 252 253 253 253 254 255 256 256 256 255 255 255 255 255 256 257 258 259 260 262 263 264 266 268 271 272 274 275 278 280 281 283 285 286 287 288 290 291 293 293 294 297 300 302 304 306 307 307 307
212 213 214 216 216 217 218 219 220 221 222 223 224 225 226 227 228 229 230 230 231 233 234 236 237 239 240 242 243 245 247 249 251 252 252 253 253 253 254 254 255 256 257 257 257 256 256 255 255 255 256 257 258 260 261 262 264 265 266 267 269 270 272 273 275 277 279 281 283 284 285 286 287 289 290 291 292 293 294 297 299 301 303 304 304
213 214 215 216 217 218 219 220 222 223 224 225 226 226 227 228 228 229 230 230 232 234 235 237 238 240 242 243 245 247 249 250 252 253 253 253 253 253 254 255 255 256 256 257 257 257 256 256 256 256 257 257 259 260 261 263 264 265 266 267 269 269 270 272 273 274 276 278 280 281 283 284 285 287 288 289 288 289 290 292 294 297 299 301 302
213 215 215 216 217 218 220 221 223 224 225 226 227 227 228 228 228 229 230 231 233 234 236 237 239 240 242 244 246 247 249 251 251 251 252 252 253 253 254 254 255 255 256 256 256 257 257 258 258 258 258 258 259 260 261 263 264 266 267 268 268 269 270 271 272 273 274 275 277 278 280 281 282 283 284 284 284 286 289 291 292 294 296 298 299
214 215 216 218 219 220 221 222 223 224 225 226 227 228 229 229 229 229 230 231 233 234 236 237 239 240 242 243 245 247 249 250 250 249 249 250 252 252 253 253 253 254 256 256 257 258 258 259 260 259 259 260 260 261 262 263 264 265 267 268 268 270 271 271 271 271 272 273 274 275 277 280 280 280 281 282 284 286 287 288 290 292 294 296 297
214 216 217 219 220 221 222 223 224 225 226 227 228 228 229 229 229 230 230 231 233 234 235 237 239 240 241 242 243 246 247 249 248 247 248 248 250 251 252 253 253 254 255 257 258 260 260 261 262 262 262 263 263 263 263 264 264 265 266 267 268 269 270 271 271 271 272 273 274 274 276 279 280 280 280 282 283 284 285 286 288 290 291 293 295
215 217 218 219 221 222 224 225 226 226 227 227 228 229 229 230 230 230 230 231 233 234 235 237 238 239 240 240 242 244 247 247 246 246 246 247 248 249 251 252 253 254 256 258 260 262 263 264 265 265 265 265 266 266 266 266 266 266 266 267 268 268 269 270 271 272 272 273 274 274 275 277 279 279 280 280 281 282 283 284 285 286 287 289 291
215 217 219 220 221 223 224 226 227 228 228 228 229 229 229 230 230 231 231 232 233 234 235 236 238 239 239 240 241 244 247 246 244 244 245 245 246 248 251 252 254 256 258 260 262 264 265 267 267 268 269 268 268 268 268 268 268 267 268 268 268 269 269 269 270 271 272 272 273 274 275 277 278 279 279 279 280 281 282 283 283 284 285 286 287
217 218 220 220 221 223 224 226 227 229 229 229 230 230 230 230 231 232 232 233 233 234 235 236 238 239 239 240 242 244 245 245 244 244 245 246 247 249 252 255 257 259 260 262 264 266 267 269 270 271 271 271 270 270 269 269 270 269 269 269 270 270 270 270 270 270 271 272 273 274 275 276 277 278 279 278 278 279 280 281 281 282 283 284 285
220 221 222 222 222 223 225 226 228 229 230 230 230 231 231 231 231 232 233 234 234 235 236 237 238 239 240 240 241 243 244 244 244 245 247 248 250 252 255 258 260 263 264 265 266 267 269 270 271 272 272 272 272 271 271 271 271 271 271 271 271 272 272 272 271 271 272 272 273 274 275 275 276 278 278 278 278 279 279 280 281 282 283 284 284
222 223 224 224 224 224 225 226 228 229 230 231 231 231 232 232 232 233 233 235 236 236 237 237 238 239 239 240 240 242 244 245 245 247 249 251 253 255 257 259 262 265 266 267 268 270 270 270 271 271 271 272 272 272 272 273 273 273 273 272 273 273 273 273 273 272 273 273 274 275 276 276 277 277 277 276 277 278 279 280 281 281 282 282 282
224 224 225 226 226 226 226 226 228 229 230 231 232 232 232 233 233 234 234 235 236 236 236 237 238 239 239 240 241 243 246 247 248 250 252 253 256 258 259 261 263 265 267 268 269 270 271 271 271 272 272 273 273 272 272 273 273 273 273 274 274 274 275 275 274 273 273 273 274 275 276 276 276 276 276 275 276 276 276 277 278 277 278 280 281
226 227 228 228 227 227 227 227 227 230 232 233 234 233 233 234 234 234 233 234 235 236 236 237 238 239 239 240 242 245 248 249 250 252 254 255 258 261 263 264 266 267 269 270 271 272 272 272 272 273 274 274 274 273 273 273 273 273 274 274 274 274 276 276 276 275 275 274 274 274 275 275 275 275 275 274 274 274 274 274 275 275 275 277 279
229 229 230 229 229 229 229 228 228 229 232 234 234 234 233 233 232 232 232 233 234 235 236 237 238 239 240 241 243 246 249 251 252 254 256 257 259 263 265 266 268 269 271 272 273 274 275 274 274 274 274 275 274 274 273 273 274 274 275 275 275 275 277 276 275 276 276 274 274 274 274 274 274 274 274 273 272 272 272 273 273 273 273 275 276
231 231 231 231 231 230 230 230 229 229 231 232 232 232 232 231 231 231 231 231 233 234 235 237 238 240 241 243 245 247 250 253 254 255 257 258 260 263 265 266 269 271 272 273 275 276 276 277 277 276 276 276 276 275 275 274 275 275 276 275 276 277 278 277 275 275 275 275 274 274 273 273 273 273 273 272 271 271 271 272 272 272 272 273 273
232 232 233 233 232 232 231 230 229 229 229 229 229 230 231 231 231 230 230 230 232 233 235 237 239 241 243 245 247 250 252 255 256 256 258 259 261 264 267 268 270 272 274 275 276 277 277 278 279 279 278 278 278 278 277 276 276 276 276 276 277 278 278 277 276 275 275 274 274 273 273 273 272 272 271 271 271 271 270 270 270 270 270 271 271
232 233 233 234 233 232 231 230 228 228 228 228 228 229 230 231 231 231 231 231 232 234 236 238 240 242 244 247 250 252 254 256 257 258 259 261 263 265 268 270 271 272 274 275 276 277 278 279 280 280 280 280 280 280 279 279 278 278 278 278 278 278 278 277 277 275 274 274 273 272 272 272 271 270 270 270 270 270 269 269 268 269 269 269 269
233 232 232 233 232 230 229 228 227 227 228 228 228 228 229 230 231 232 232 233 234 236 237 239 241 244 246 248 251 253 255 257 258 259 260 262 263 265 267 270 272 273 274 275 277 278 279 280 281 281 281 281 281 281 281 281 280 280 280 279 279 279 278 277 277 275 274 273 272 271 271 270 270 269 269 269 269 268 267 267 267 267 268 268 269
230 229 229 229 229 229 228 227 227 227 228 229 230 230 230 230 232 232 233 234 236 238 239 241 244 246 248 250 252 254 256 258 260 261 263 264 266 267 269 271 273 275 276 277 279 280 281 282 283 283 283 282 282 282 282 282 282 281 281 281 281 280 279 278 277 276 274 272 271 270 270 269 269 269 269 269 268 267 266 266 265 265 266 267 268
227 226 226 226 228 228 227 227 227 228 230 231 232 232 231 232 233 234 234 235 237 239 241 242 244 247 249 251 252 255 258 260 263 265 266 267 268 269 271 273 274 275 277 278 280 281 282 283 284 284 284 284 284 284 284 283 283 282 282 282 282 281 280 280 278 276 274 272 271 270 269 269 268 268 269 268 267 265 264 264 263 263 263 265 266
227 226 225 226 228 229 228 228 228 229 231 233 234 235 234 233 234 235 236 237 238 240 242 243 245 247 249 251 253 256 259 262 264 266 268 269 271 272 273 275 276 277 279 280 281 282 283 283 284 284 284 284 285 285 285 285 285 285 284 284 284 283 282 281 279 277 275 274 273 272 272 272 270 269 269 268 266 264 263 262 261 260 260 261 263
228 227 226 227 229 230 229 229 229 230 231 233 234 235 235 235 236 237 237 238 240 242 243 244 246 247 249 252 254 257 260 263 266 268 270 272 274 275 277 278 279 280 282 283 284 285 285 286 286 286 286 286 286 286 286 286 287 286 286 285 285 284 283 282 281 280 279 279 278 278 278 277 275 273 271 268 266 264 262 261 260 259 258 259 259
229 227 225 226 229 231 231 230 229 230 231 232 234 235 235 235 236 238 240 240 241 243 245 247 249 250 252 253 255 258 262 265 268 270 272 274 276 278 280 282 282 283 285 286 288 289 289 289 289 289 289 290 290 289 289 289 288 288 287 287 286 285 284 283 282 282 282 281 281 282 281 280 278 275 273 271 268 265 264 263 261 259 257 256 257
231 229 227 227 229 231 232 231 230 231 231 232 234 236 236 236 237 240 242 244 244 245 247 249 251 253 254 256 257 259 262 265 268 270 272 275 278 280 282 283 285 286 288 289 290 291 292 292 292 292 292 293 293 292 292 291 291 290 289 289 288 287 286 285 284 283 283 282 282 282 281 279 277 275 274 271 268 265 264 262 261 258 256 255 255
230 229 228 229 231 232 232 232 231 231 232 233 234 236 237 239 241 243 244 246 248 248 249 250 251 252 254 257 259 260 262 264 267 270 273 277 280 282 284 286 287 289 290 291 292 292 293 294 294 294 295 295 295 295 294 294 293 293 292 291 290 289 288 286 285 285 284 282 281 280 279 277 275 274 272 270 267 265 263 262 260 258 256 256 255
231 231 230 230 231 231 232 232 232 232 232 233 234 234 236 239 243 245 246 247 247 248 248 249 250 251 253 256 259 261 263 266 269 272 275 278 281 283 285 287 289 290 292 292 293 294 295 295 295 296 297 297 296 296 296 296 296 295 294 294 292 291 290 288 287 286 285 283 281 280 278 276 273 271 270 268 266 263 263 262 259 256 255 255 254
231 232 231 231 231 232 232 233 233 232 232 233 234 234 235 236 240 244 246 246 246 246 246 247 249 251 253 256 259 264 267 269 271 274 276 279 281 284 286 288 290 291 293 294 295 296 296 297 297 298 299 299 298 298 298 297 297 297 296 295 294 293 292 290 289 287 285 283 282 280 277 275 272 270 267 265 263 261 260 259 256 254 253 253 252
231 231 231 232 233 233 233 233 232 232 232 233 233 234 234 234 236 238 241 244 245 247 249 250 252 254 257 259 262 266 269 271 273 275 277 279 282 285 287 289 290 292 293 295 296 297 298 299 299 300 301 300 300 300 300 299 299 298 298 297 296 295 294 293 291 288 286 284 282 280 278 275 272 269 266 263 260 258 257 256 254 252 252 252 250
232 232 232 233 234 234 234 233 232 232 233 233 233 234 235 235 236 237 239 242 246 249 252 255 257 258 260 262 265 268 272 274 276 277 279 281 283 286 288 290 292 293 295 296 297 298 299 300 301 301 302 301 302 302 302 302 301 300 300 299 298 298 297 295 293 290 288 285 283 280 278 275 272 268 265 262 259 257 255 254 252 251 249 249 248
234 235 235 234 235 234 233 233 232 232 233 234 234 235 236 237 239 241 242 244 247 250 253 256 259 262 263 265 268 271 275 277 279 280 282 284 286 288 290 292 294 295 297 298 299 299 300 301 301 302 302 303 303 304 304 303 303 303 303 302 301 300 298 296 293 291 289 287 284 281 278 275 272 268 264 261 258 256 253 251 249 247 246 245 244
235 236 235 234 234 233 233 232 232 232 233 234 235 236 237 239 242 244 246 247 249 252 254 257 260 263 265 267 270 274 277 280 282 283 285 287 288 290 292 293 295 296 297 299 299 300 300 301 302 303 303 303 304 305 306 306 306 306 306 305 304 302 300 297 295 293 291 289 287 283 279 275 272 268 264 260 257 254 251 249 246 245 243 241 240
235 235 234 233 232 232 232 232 233 233 234 235 237 238 240 242 244 246 248 250 251 252 255 258 261 263 266 270 273 277 280 283 285 286 287 288 289 291 292 293 295 297 298 299 300 300 301 301 302 302 303 304 306 307 308 308 308 308 308 308 307 305 303 300 298 296 294 292 290 286 282 277 273 269 264 260 256 252 249 246 244 242 240 237 235
234 234 233 232 232 232 232 233 234 235 236 238 239 240 242 245 247 249 251 252 253 255 258 261 263 265 268 272 276 279 282 284 285 286 287 288 289 291 293 295 296 298 298 299 299 300 300 300 301 302 303 305 307 308 310 310 311 311 311 312 311 310 308 305 302 299 297 294 291 288 285 280 275 269 264 259 255 250 246 242 239 237 235 233 232
233 233 232 231 232 233 235 236 237 238 239 241 242 244 245 248 251 253 255 256 257 260 263 265 266 267 269 273 277 280 282 283 285 286 286 287 289 291 294 296 297 297 297 298 299 299 299 299 300 302 304 305 307 309 311 312 313 314 315 315 316 316 315 312 308 304 300 297 294 290 286 281 277 272 265 259 252 244 237 233 231 229 228 228 227
232 233 233 233 234 235 236 237 238 240 243 244 246 248 250 253 255 258 260 262 264 266 267 268 268 270 272 274 278 280 281 283 284 285 286 287 290 293 295 296 297 297 297 297 298 298 298 299 300 302 304 305 307 309 311 314 316 317 319 321 322 323 325 324 318 312 307 304 299 293 287 282 279 273 265 259 251 239 229 226 225 225 224 223 220
233 233 234 234 234 235 237 239 241 243 245 247 249 252 254 257 259 261 264 266 268 269 270 271 272 274 277 279 280 281 281 282 284 285 286 288 291 292 294 295 296 296 296 296 297 298 298 298 299 301 303 305 307 309 311 314 317 319 322 325 326 329 335 339 336 330 325 318 309 300 293 288 282 273 260 250 242 232 226 223 222 220 218 214 209
232 233 235 236 237 238 241 243 244 246 248 250 252 255 257 259 261 263 265 267 268 270 272 273 274 276 279 281 281 281 281 282 284 285 287 289 290 292 293 294 295 295 295 296 297 298 298 298 299 300 301 303 306 309 311 314 317 319 323 327 329 332 341 349 353 353 352 348 340 332 324 312 300 286 264 244 227 215 212 212 211 210 208 205 201
233 235 236 238 240 241 243 245 247 249 251 254 255 257 259 260 261 263 265 267 269 270 272 274 275 277 279 280 281 281 282 283 284 286 288 289 291 292 293 294 293 293 294 295 296 297 297 297 298 299 301 302 305 308 311 314 317 319 322 326 330 333 340 348 356 2 7 11 14 14 12 9 11 13 350 215 195 193 196 198 198 197 197 198 199
234 237 238 240 242 244 246 248 250 251 253 256 257 259 261 262 263 264 266 267 269 271 272 274 276 277 278 280 281 281 282 284 285 287 288 289 291 292 292 292 291 292 293 294 295 295 296 296 297 299 300 302 304 308 311 314 317 318 320 323 327 333 337 342 349 356 4 12 19 24 28 34 42 55 79 112 144 166 179 187 190 191 192 195 202
237 239 241 243 245 247 249 251 252 254 255 257 259 261 262 263 265 266 268 269 271 273 274 276 277 278 279 280 282 283 284 285 286 287 288 289 290 291 291 290 290 290 292 293 294 294 295 296 297 298 300 302 304 307 311 314 316 318 320 321 324 328 334 339 345 351 358 4 9 15 21 29 38 49 73 121 150 163 174 184 191 194 195 198 204
241 242 244 245 247 249 251 253 254 256 257 259 260 262 264 265 267 269 270 272 273 275 276 278 279 280 281 282 283 284 285 285 286 286 287 289 290 290 290 289 288 289 290 291 292 293 295 295 296 298 299 301 303 305 309 313 315 318 321 323 324 326 331 336 342 349 354 358 2 7 11 15 18 22 33 114 185 193 196 198 200 201 202 205 209
242 243 244 246 248 249 251 253 255 256 258 260 262 264 266 267 269 270 272 274 275 276 278 279 280 281 282 283 283 284 284 285 285 286 287 288 289 289 289 288 287 287 289 290 291 292 293 294 295 297 298 299 301 304 307 311 313 316 319 322 324 326 330 335 340 346 352 356 359 3 7 9 8 6 6 2 278 225 218 216 215 213 213 214 215
242 243 244 246 248 249 251 253 255 257 259 261 263 265 267 268 270 271 273 275 277 278 279 280 280 281 281 282 283 284 284 284 285 286 286 286 287 288 288 287 286 286 287 289 290 291 291 291 293 295 296 297 300 303 305 308 311 313 315 318 321 324 327 331 335 339 344 350 354 358 2 5 4 360 357 356 350 290 231 224 222 222 223 225 224
242 244 245 247 248 250 252 254 256 258 260 261 263 264 266 268 270 272 273 275 277 278 279 280 281 281 281 283 284 285 285 284 285 285 284 284 286 286 286 286 285 286 287 289 290 290 290 289 290 291 292 294 297 300 302 305 307 309 310 312 316 320 323 324 327 331 335 338 342 345 348 351 351 347 341 337 329 312 283 259 247 241 238 236 232
244 245 246 248 249 251 253 255 256 258 260 261 263 264 266 267 269 271 273 275 277 278 279 281 281 282 283 284 286 286 286 285 284 283 283 283 284 285 285 285 284 285 286 288 289 290 290 289 289 289 289 291 294 296 297 299 302 304 305 306 308 312 316 318 319 322 324 326 327 328 329 329 329 325 320 314 307 297 284 272 263 256 249 245 241
242 244 245 247 249 251 253 254 256 258 260 262 264 266 267 268 270 271 273 274 276 277 279 281 282 283 284 286 287 286 285 284 284 283 283 283 283 284 284 284 283 283 284 286 287 287 288 289 289 288 288 289 290 292 293 295 296 297 299 300 301 303 306 308 309 310 311 312 312 313 312 311 310 308 305 301 297 291 282 273 267 261 256 252 249